Flag for Liberia Weather past 2 weeks in Gbarnga, Liberia

Now
75 °F

Passing clouds.


Feels Like: 74 °F
Forecast: 67 / 79 °F
Wind: No wind

Location: Roberts Field

Current Time: Sep 1, 2015 at 6:31:34 AM

Latest Report: Sep 1, 2015 at 5:30 AM


Visibility: N/A

Pressure: 29.98 "Hg

Humidity: 94%

Dew point: 73 °F

Location of GbarngaLocation

Historic Weather in Gbarnga — Graph

°F

Gbarnga temperature yesterday

Maximum temperature yesterday: 84 °F (at 12:30 PM)
Minimum temperature yesterday: 73 °F (at 6:30 AM)
Average temperature yesterday: 78 °F

Past Weeks' High & Low Weather Summary

 TemperatureHumidityPressure
High84 °F (Aug 26, 12:30 PM)100% (Aug 17, 9:30 AM)30.07 "Hg (Aug 17, 9:30 AM)
Low72 °F (Aug 25, 6:30 AM)70% (Aug 31, 12:30 PM)29.86 "Hg (Aug 18, 5:00 PM)
Average78 °F90%29.94 "Hg
* Reported Aug 17 5:00 AM — Sep 1 5:30 AM, Gbarnga, Weather by CustomWeather, © 2015

Note: Actual official high and low records may vary slightly from our data, if they occured in-between our weather recording intervals... More about our weather records

Advertising

Gbarnga weather history for previous 24 hours

 ConditionsComfort  
Time TempWeatherWind HumidityBarometerVisibility
5:30 AM
Tue, Sep 1
75 °FPassing clouds.No wind94%29.98 "HgN/A
5:00 AM77 °FPassing clouds.No wind94%29.98 "HgN/A
3:00 AM75 °FPassing clouds.No wind94%29.95 "HgN/A
2:30 AM75 °FPassing clouds.No wind94%29.98 "HgN/A
1:30 AM77 °FPassing clouds.No wind94%29.98 "HgN/A
12:30 AM77 °FPassing clouds.No wind94%30.01 "HgN/A
12:00 AM77 °FPassing clouds.No wind94%30.01 "HgN/A
11:00 PM
Mon, Aug 31
77 °FPassing clouds.No wind94%30.01 "HgN/A
9:30 PM77 °FPassing clouds.No wind94%30.01 "HgN/A
9:00 PM77 °FPassing clouds.No wind94%29.98 "HgN/A
8:30 PM77 °FPassing clouds.No wind94%29.98 "HgN/A
5:00 PM81 °FPartly sunny.9 mph84%29.95 "HgN/A
4:30 PM82 °FPartly sunny.10 mph79%29.95 "HgN/A
4:01 PM82 °FPartly sunny.10 mph79%29.95 "HgN/A
3:30 PM82 °FPartly sunny.9 mph79%29.95 "HgN/A
3:00 PM82 °FPartly sunny.9 mph79%29.98 "HgN/A
2:30 PM82 °FPartly sunny.9 mph79%29.98 "HgN/A
2:00 PM84 °FPartly sunny.13 mph70%29.98 "HgN/A
1:30 PM82 °FPartly sunny.9 mph74%30.01 "HgN/A
1:00 PM84 °FPartly sunny.8 mph74%30.01 "HgN/A
12:30 PM84 °FPartly sunny.10 mph70%30.01 "HgN/A
12:00 PM82 °FPartly sunny.8 mph74%30.04 "HgN/A
11:30 AM82 °FPartly sunny.9 mph79%30.04 "HgN/A
11:00 AM81 °FPartly sunny.9 mph84%30.04 "HgN/A
10:30 AM79 °FPartly sunny.7 mph89%30.07 "HgN/A
10:00 AM79 °FPartly sunny.7 mph84%30.07 "HgN/A
9:00 AM77 °FPartly sunny.5 mph94%30.04 "HgN/A
8:30 AM75 °FPartly sunny.No wind94%30.04 "HgN/A
8:00 AM75 °FPartly sunny.No wind94%30.04 "HgN/A
7:30 AM75 °FPassing clouds.No wind94%30.01 "HgN/A
7:00 AM73 °FPassing clouds.No wind94%30.01 "HgN/A
6:30 AM73 °FPassing clouds.No wind94%30.01 "HgN/A
6:00 AM75 °FPartly cloudy.No wind94%30.01 "HgN/A
Weather by CustomWeather, © 2015

See weather overviewHow to use our weather pages